"startDT [UTC]","vpos","CH4 [ppm]","stdev(CH4) [ppm]","CO2 [ppm]","stdev(CO2) [ppm]","H2O_reported [%]","stdev(H2O_reported)","CavityPressure [torr]","CavityTemp [C]","OutletValve","CH4_dry [ppm]","CO2_dry [ppm]","DasTemp [C]","EtalonTemp [C]","WarmBoxTemp [C]","MPVPosition","T_ECpre [C]","T_EC1 [C]","T_EC2 [C]","p_inlet [hPa]","p_in [hPa]","p_out [hPa]","T_inlet [C]","RH_inlet [%]","dwpt_inlet [C]","T_vent [C]","RH_vent [%]","dwpt_vent [C]","flow_vent [l min-1]","flow_inlet [l min-1]","dwpt_sample [C]","T_room [C]"
2014-07-29 00:00:00,0.0,1.97905,0.00037,382.887,0.090,1.3049,0.0033,140.001,45.000,32251.82115,2.00557,389.160,37.689,45.063,45.000,0.00,0.11,-272.65,-272.70,-3,585,-10,26.9,28.9,7.3,26.6,29.6,7.4,5.73,1.80,7.1,29.8
2014-07-29 00:01:00,0.0,1.97926,0.00037,382.848,0.141,1.3057,0.0029,140.000,45.000,32252.10201,2.00581,389.118,37.690,45.063,45.000,0.00,0.11,-272.64,-272.70,-4,585,-10,26.9,28.9,7.3,26.6,29.6,7.4,5.73,1.98,7.1,29.8
2014-07-29 00:02:00,0.0,1.97885,0.00050,383.050,0.104,1.3111,0.0038,140.001,45.000,32251.70338,2.00549,389.351,37.695,45.063,45.000,0.00,0.11,-272.64,-272.70,-4,585,-10,26.9,29.1,7.4,26.6,29.7,7.4,5.73,1.66,7.1,29.8
2014-07-29 00:03:00,0.0,1.97853,0.00048,383.318,0.070,1.3154,0.0023,140.000,45.000,32251.84173,2.00527,389.645,37.716,45.063,45.000,0.00,0.11,-272.64,-272.70,-3,585,-10,26.9,29.2,7.4,26.6,29.8,7.5,5.73,1.82,7.1,29.7
2014-07-29 00:04:00,0.0,1.97832,0.00045,383.215,0.085,1.3203,0.0019,139.998,45.000,32252.20766,2.00516,389.572,37.692,45.062,45.000,0.00,0.11,-272.64,-272.70,-3,585,-10,26.9,29.3,7.5,26.6,29.9,7.6,5.73,1.97,7.1,29.7
2014-07-29 00:05:00,0.0,1.97854,0.00040,383.102,0.162,1.3265,0.0039,140.001,45.000,32253.53060,2.00551,389.486,37.691,45.063,45.000,0.00,0.11,-272.63,-272.70,-4,585,-10,26.9,29.5,7.6,26.6,30.0,7.6,5.73,1.66,7.2,29.6
2014-07-29 00:06:00,0.0,1.97875,0.00049,383.314,0.103,1.3297,0.0023,140.000,45.000,32252.64252,2.00577,389.714,37.702,45.063,45.000,0.00,0.11,-272.64,-272.70,-4,586,-10,26.9,29.5,7.6,26.6,30.2,7.7,5.73,1.83,7.1,29.7
2014-07-29 00:07:00,0.0,1.97859,0.00042,383.147,0.102,1.3297,0.0024,140.002,45.000,32250.86258,2.00561,389.547,37.736,45.063,45.000,0.00,0.11,-272.64,-272.70,-3,586,-10,26.9,29.5,7.6,26.6,30.2,7.7,5.73,1.96,7.2,29.8
2014-07-29 00:08:00,0.0,1.97953,0.00053,383.247,0.100,1.3283,0.0014,139.999,45.000,32251.24084,2.00653,389.641,37.744,45.062,45.000,0.00,0.11,-272.63,-272.70,-4,586,-10,26.9,29.5,7.6,26.6,30.1,7.7,5.73,1.65,7.2,29.7
2014-07-29 00:09:00,0.0,1.97982,0.00038,383.357,0.068,1.3287,0.0027,139.998,45.000,32249.07577,2.00686,389.755,37.750,45.062,45.000,0.00,0.11,-272.64,-272.70,-4,586,-10,26.9,29.4,7.6,26.6,30.1,7.7,5.73,1.84,7.2,29.7
2014-07-29 00:10:00,0.0,1.97966,0.00043,383.165,0.159,1.3273,0.0020,140.001,45.000,32250.85505,2.00668,389.556,37.750,45.062,45.000,0.00,0.11,-272.64,-272.70,-3,586,-10,26.9,29.4,7.6,26.6,30.1,7.7,5.73,1.95,7.2,29.7
2014-07-29 00:11:00,0.0,1.97894,0.00033,383.098,0.109,1.3335,0.0025,139.999,45.000,32251.29204,2.00608,389.522,37.750,45.062,45.000,0.00,0.11,-272.63,-272.70,-3,586,-10,26.9,29.6,7.6,26.6,30.2,7.7,5.73,1.64,7.2,29.7
2014-07-29 00:12:00,0.0,1.97900,0.00031,383.239,0.138,1.3336,0.0019,140.002,45.000,32251.95318,2.00612,389.656,37.748,45.062,45.000,0.00,0.11,-272.64,-272.70,-4,586,-10,26.9,29.6,7.6,26.6,30.3,7.7,5.73,1.87,7.2,29.5
2014-07-29 00:13:00,0.0,1.97868,0.00040,383.218,0.094,1.3348,0.0021,139.998,45.000,32252.38890,2.00586,389.644,37.750,45.062,45.000,0.00,0.11,-272.64,-272.71,-4,586,-10,26.9,29.6,7.7,26.6,30.3,7.7,5.73,1.93,7.2,29.5
2014-07-29 00:14:00,0.0,1.97825,0.00075,383.121,0.183,1.3372,0.0025,140.001,45.000,32253.94696,2.00538,389.553,37.751,45.063,45.000,0.00,0.11,-272.64,-272.70,-3,586,-10,26.9,29.7,7.7,26.6,30.3,7.8,5.73,1.64,7.2,29.7
2014-07-29 00:15:00,0.0,1.97887,0.00031,383.345,0.058,1.3369,0.0017,140.004,45.000,32256.26668,2.00611,389.787,37.759,45.062,45.000,0.00,0.11,-272.64,-272.70,-4,586,-10,26.9,29.6,7.7,26.6,30.3,7.8,5.73,1.90,7.2,29.8
2014-07-29 00:16:00,0.0,1.97793,0.00055,383.250,0.107,1.3347,0.0019,140.000,45.000,32255.18611,2.00509,389.677,37.801,45.063,45.000,0.00,0.11,-272.64,-272.70,-4,586,-10,26.9,29.6,7.7,26.6,30.3,7.7,5.73,1.89,7.2,29.9
2014-07-29 00:17:00,0.0,1.97775,0.00039,383.206,0.075,1.3361,0.0017,140.002,45.000,32255.90346,2.00492,389.642,37.802,45.063,45.000,0.00,0.11,-272.64,-272.70,-3,586,-10,26.9,29.6,7.7,26.6,30.3,7.8,5.73,1.64,7.3,29.8
2014-07-29 00:18:00,0.0,1.97858,0.00051,383.196,0.095,1.3325,0.0027,139.997,45.000,32255.15858,2.00563,389.611,37.811,45.062,45.000,0.00,0.11,-272.64,-272.70,-3,586,-10,26.9,29.5,7.6,26.6,30.2,7.7,5.73,1.95,7.3,29.7
2014-07-29 00:19:00,0.0,1.97831,0.00046,383.206,0.096,1.3302,0.0020,139.999,45.000,32256.66972,2.00538,389.607,37.811,45.062,45.000,0.00,0.11,-272.63,-272.70,-4,586,-10,27.0,29.4,7.6,26.6,30.2,7.7,5.73,1.83,7.3,29.8
2014-07-29 00:20:00,0.0,1.97818,0.00045,383.114,0.311,1.3309,0.0021,140.000,45.000,32256.17600,2.00525,389.516,37.813,45.063,45.000,0.00,0.11,-272.64,-272.71,-4,586,-10,26.9,29.4,7.6,26.7,30.1,7.7,5.73,1.66,7.3,29.9
2014-07-29 00:21:00,0.0,1.97799,0.00049,383.251,0.131,1.3346,0.0039,139.999,45.000,32256.13195,2.00512,389.684,37.814,45.063,45.000,0.00,0.11,-272.64,-272.70,-3,586,-10,26.9,29.6,7.7,26.7,30.2,7.7,5.73,1.98,7.3,29.9
2014-07-29 00:22:00,0.0,1.97862,0.00065,383.343,0.088,1.3447,0.0042,139.999,45.000,32254.78656,2.00596,389.815,37.814,45.063,45.000,0.00,0.11,-272.63,-272.70,-4,585,-10,26.9,29.8,7.8,26.7,30.4,7.8,5.73,1.78,7.3,29.8
2014-07-29 00:23:00,0.0,1.97872,0.00033,382.997,0.126,1.3540,0.0036,140.000,45.000,32256.52435,2.00625,389.522,37.813,45.063,45.000,0.00,0.11,-272.64,-272.70,-4,586,-10,27.0,30.0,7.9,26.7,30.6,8.0,5.73,1.69,7.3,29.9
2014-07-29 00:24:00,0.0,1.97897,0.00042,382.975,0.112,1.3607,0.0033,140.000,45.000,32257.68078,2.00665,389.529,37.812,45.063,45.000,0.00,0.11,-272.64,-272.71,-3,586,-10,27.0,30.2,8.0,26.7,30.8,8.0,5.73,1.99,7.3,29.9
2014-07-29 00:25:00,0.0,1.97947,0.00057,383.126,0.204,1.3639,0.0024,139.999,45.000,32258.76919,2.00721,389.691,37.818,45.063,45.000,0.00,0.11,-272.63,-272.70,-3,585,-10,27.0,30.2,8.0,26.7,30.9,8.1,5.73,1.73,7.3,29.9
2014-07-29 00:26:00,0.0,1.98027,0.00060,383.219,0.063,1.3617,0.0021,140.000,45.000,32258.32579,2.00801,389.783,37.814,45.063,45.000,0.00,0.11,-272.64,-272.70,-5,586,-10,27.0,30.2,8.0,26.7,30.9,8.1,5.73,1.74,7.4,29.9
2014-07-29 00:27:00,0.0,1.98059,0.00044,383.123,0.193,1.3596,0.0020,139.999,45.000,32258.13537,2.00826,389.685,37.815,45.063,45.000,0.00,0.11,-272.65,-272.71,-4,586,-10,27.0,30.1,7.9,26.7,30.8,8.1,5.73,1.99,7.3,29.8
2014-07-29 00:28:00,0.0,1.98065,0.00028,383.222,0.207,1.3499,0.0036,140.000,45.000,32260.41957,2.00818,389.717,37.815,45.063,45.000,0.00,0.11,-272.63,-272.70,-3,586,-10,27.0,29.8,7.8,26.7,30.7,8.0,5.73,1.68,7.4,29.8
2014-07-29 00:29:00,0.0,1.98106,0.00032,383.331,0.120,1.3424,0.0017,140.001,45.000,32261.59938,2.00837,389.802,37.816,45.063,45.000,0.00,0.11,-272.64,-272.70,-4,586,-10,27.0,29.6,7.7,26.7,30.4,7.9,5.73,1.80,7.4,29.8
2014-07-29 00:30:00,0.0,1.98164,0.00043,383.158,0.221,1.3398,0.0019,140.002,45.000,32260.77492,2.00895,389.604,37.818,45.063,45.000,0.00,0.11,-272.65,-272.70,-4,586,-10,27.0,29.5,7.7,26.7,30.3,7.8,5.73,1.97,7.4,29.8
2014-07-29 00:31:00,0.0,1.98196,0.00044,383.231,0.178,1.3373,0.0021,139.998,45.000,32257.31422,2.00920,389.675,37.828,45.063,45.000,0.00,0.11,-272.64,-272.70,-3,586,-10,27.0,29.5,7.7,26.7,30.2,7.8,5.73,1.64,7.4,29.7
2014-07-29 00:32:00,0.0,1.98197,0.00043,383.431,0.100,1.3386,0.0018,140.000,45.000,32257.92350,2.00922,389.876,37.853,45.063,45.000,0.00,0.11,-272.64,-272.70,-4,586,-10,27.0,29.5,7.7,26.7,30.3,7.8,5.73,1.87,7.4,29.8
2014-07-29 00:33:00,0.0,1.98182,0.00049,383.507,0.133,1.3315,0.0034,140.000,45.000,32259.62756,2.00894,389.922,37.871,45.063,45.000,0.00,0.11,-272.64,-272.71,-4,586,-10,27.0,29.3,7.6,26.7,30.2,7.7,5.73,1.91,7.4,29.8
2014-07-29 00:34:00,0.0,1.98178,0.00038,383.448,0.065,1.3248,0.0030,139.998,45.000,32259.18820,2.00877,389.829,37.868,45.062,45.000,0.00,0.11,-272.64,-272.70,-3,586,-10,27.0,29.2,7.5,26.7,30.0,7.6,5.73,1.63,7.4,29.9
2014-07-29 00:35:00,0.0,1.98154,0.00050,383.197,0.142,1.3235,0.0018,140.000,45.000,32260.31244,2.00850,389.572,37.873,45.062,45.000,0.00,0.11,-272.64,-272.70,-3,586,-10,27.0,29.2,7.5,26.7,29.9,7.6,5.73,1.95,7.4,29.8
2014-07-29 00:36:00,0.0,1.98151,0.00043,383.114,0.297,1.3267,0.0030,140.000,45.000,32261.69145,2.00853,389.494,37.872,45.062,45.000,0.00,0.11,-272.63,-272.70,-5,586,-10,27.0,29.3,7.6,26.7,29.9,7.6,5.73,1.82,7.4,30.0
2014-07-29 00:37:00,0.0,1.98187,0.00052,383.290,0.222,1.3348,0.0041,140.002,45.000,32262.57443,2.00901,389.716,37.874,45.062,45.000,0.00,0.11,-272.64,-272.70,-4,586,-10,27.0,29.5,7.7,26.7,30.1,7.7,5.73,1.67,7.4,29.9
2014-07-29 00:38:00,0.0,1.98169,0.00036,383.271,0.085,1.3445,0.0020,139.998,45.000,32262.01743,2.00913,389.752,37.875,45.063,45.000,0.00,0.11,-272.64,-272.70,-3,586,-10,27.0,29.7,7.8,26.7,30.3,7.8,5.73,1.99,7.4,30.0
2014-07-29 00:39:00,0.0,1.98189,0.00038,383.088,0.185,1.3456,0.0022,140.001,45.000,32263.63291,2.00929,389.566,37.875,45.063,45.000,0.00,0.11,-272.63,-272.70,-4,586,-10,27.0,29.7,7.8,26.7,30.4,7.9,5.73,1.73,7.4,30.0
2014-07-29 00:40:00,0.0,1.98164,0.00044,382.857,0.154,1.3433,0.0024,140.002,45.000,32265.34282,2.00907,389.329,37.875,45.063,45.000,0.00,0.11,-272.64,-272.70,-4,586,-10,27.0,29.6,7.8,26.7,30.3,7.8,5.73,1.75,7.4,30.0
2014-07-29 00:41:00,0.0,1.98179,0.00033,382.985,0.163,1.3475,0.0025,140.002,45.000,32263.85344,2.00921,389.468,37.875,45.063,45.000,0.00,0.11,-272.64,-272.70,-3,586,-10,27.0,29.7,7.8,26.7,30.4,7.9,5.73,1.99,7.4,29.9
2014-07-29 00:42:00,0.0,1.98157,0.00055,383.049,0.188,1.3547,0.0037,139.999,45.000,32263.66573,2.00916,389.569,37.875,45.063,45.000,0.00,0.11,-272.63,-272.70,-4,586,-10,27.0,29.9,7.9,26.7,30.5,8.0,5.73,1.65,7.4,29.9
2014-07-29 00:43:00,0.0,1.98172,0.00027,382.954,0.125,1.3647,0.0031,139.999,45.000,32263.75805,2.00953,389.528,37.878,45.063,45.000,0.00,0.11,-272.64,-272.70,-5,586,-10,27.0,30.1,8.0,26.7,30.8,8.1,5.73,1.85,7.4,30.0
2014-07-29 00:44:00,0.0,1.98209,0.00037,382.889,0.098,1.3677,0.0018,140.000,45.000,32264.46004,2.00997,389.476,37.892,45.063,45.000,0.00,0.11,-272.64,-272.71,-3,586,-10,27.0,30.1,8.0,26.7,30.9,8.1,5.73,1.92,7.4,30.0
2014-07-29 00:45:00,0.0,1.98229,0.00043,382.620,0.158,1.3669,0.0014,139.999,45.000,32262.59156,2.01018,389.202,37.918,45.063,45.000,0.00,0.11,-272.63,-272.70,-3,586,-10,27.0,30.1,8.0,26.7,30.9,8.1,5.73,1.63,7.4,30.1
2014-07-29 00:46:00,0.0,1.98201,0.00049,382.798,0.310,1.3709,0.0023,140.000,45.000,32262.67750,2.00998,389.393,37.922,45.062,45.000,0.00,0.11,-272.64,-272.70,-5,586,-10,27.0,30.2,8.1,26.8,30.9,8.2,5.73,1.95,7.4,30.0
2014-07-29 00:47:00,0.0,1.98138,0.00060,383.143,0.139,1.3736,0.0019,140.000,45.000,32264.76857,2.00942,389.768,37.915,45.062,45.000,0.00,0.11,-272.64,-272.70,-4,587,-10,27.0,30.3,8.1,26.8,31.0,8.2,5.73,1.81,7.4,30.1
2014-07-29 00:48:00,0.0,1.98189,0.00116,383.136,0.270,1.3765,0.0020,139.998,45.000,32263.12455,2.00992,389.768,37.907,45.062,45.000,0.00,0.11,-272.64,-272.69,-3,586,-10,27.1,30.3,8.1,26.7,31.1,8.2,5.73,1.68,7.4,29.9
2014-07-29 00:49:00,0.0,1.98256,0.00051,383.285,0.098,1.3666,0.0043,140.000,45.000,32264.23413,2.01042,389.870,37.928,45.062,45.000,0.00,0.11,-272.64,-272.70,-5,586,-10,27.1,30.0,8.0,26.8,30.9,8.1,5.73,2.00,7.4,30.0
2014-07-29 00:50:00,0.0,1.98324,0.00044,383.458,0.160,1.3516,0.0065,139.999,45.000,32266.26256,2.01085,389.983,37.938,45.062,45.000,0.00,0.11,-272.64,-272.71,-4,586,-10,27.1,29.6,7.8,26.8,30.6,8.0,5.73,1.69,7.4,30.0
2014-07-29 00:51:00,0.0,1.98246,0.00048,383.277,0.155,1.3387,0.0039,139.997,45.000,32265.63629,2.00975,389.718,37.941,45.062,45.000,0.00,0.11,-272.64,-272.70,-3,586,-10,27.1,29.4,7.7,26.8,30.2,7.8,5.73,1.80,7.4,30.1
2014-07-29 00:52:00,0.0,1.98261,0.00053,383.517,0.089,1.3340,0.0028,139.999,45.000,32267.26541,2.00977,389.942,37.941,45.062,45.000,0.00,0.11,-272.63,-272.70,-4,586,-10,27.1,29.3,7.6,26.8,30.0,7.7,5.73,1.96,7.4,30.0
2014-07-29 00:53:00,0.0,1.98324,0.00052,383.586,0.051,1.3311,0.0042,139.998,45.000,32268.19560,2.01039,390.001,37.943,45.062,45.000,0.00,0.11,-272.63,-272.70,-4,586,-10,27.1,29.2,7.6,26.8,30.0,7.7,5.73,1.63,7.4,30.0
2014-07-29 00:54:00,0.0,1.98260,0.00049,383.439,0.107,1.3186,0.0027,140.002,45.000,32268.55731,2.00946,389.793,37.947,45.062,45.000,0.00,0.11,-272.64,-272.70,-3,586,-10,27.1,28.9,7.4,26.8,29.7,7.6,5.73,1.92,7.4,29.9
2014-07-29 00:55:00,0.0,1.98342,0.00053,383.443,0.081,1.3159,0.0027,140.001,45.000,32270.45317,2.01022,389.781,37.954,45.062,45.000,0.00,0.11,-272.64,-272.70,-4,586,-10,27.1,28.8,7.4,26.8,29.6,7.5,5.73,1.85,7.4,30.0
2014-07-29 00:56:00,0.0,1.98350,0.00052,383.412,0.118,1.3202,0.0024,140.003,45.000,32270.71788,2.01037,389.763,37.945,45.062,45.000,0.00,0.11,-272.64,-272.69,-4,587,-10,27.1,28.9,7.5,26.8,29.6,7.6,5.73,1.66,7.4,30.0
2014-07-29 00:57:00,0.0,1.98309,0.00031,383.515,0.052,1.3206,0.0018,140.001,45.000,32273.11115,2.01004,389.878,37.941,45.063,45.000,0.00,0.11,-272.64,-272.70,-3,587,-10,27.1,28.9,7.5,26.8,29.7,7.6,5.73,2.00,7.4,30.1
2014-07-29 00:58:00,0.0,1.98248,0.00041,383.335,0.071,1.3187,0.0029,140.003,45.000,32273.59155,2.00935,389.684,37.939,45.063,45.000,0.00,0.11,-272.64,-272.70,-4,587,-10,27.1,28.8,7.4,26.8,29.6,7.6,5.73,1.72,7.4,30.0
2014-07-29 00:59:00,0.0,1.98226,0.00053,383.265,0.122,1.3147,0.0024,140.000,45.000,32272.30213,2.00903,389.593,37.956,45.062,45.000,0.00,0.11,-272.64,-272.69,-5,587,-10,27.1,28.8,7.4,26.8,29.5,7.5,5.73,1.76,7.4,30.1
2014-07-29 01:00:00,0.0,1.98241,0.00051,382.964,0.145,1.3240,0.0036,139.999,45.000,32274.44103,2.00935,389.332,37.953,45.062,45.000,0.00,0.11,-272.64,-272.70,-3,587,-10,27.1,29.1,7.5,26.8,29.7,7.6,5.73,1.97,7.4,30.0
2014-07-29 01:01:00,0.0,1.98258,0.00039,383.069,0.189,1.3289,0.0020,139.998,45.000,32273.91142,2.00966,389.462,37.956,45.063,45.000,0.00,0.11,-272.64,-272.70,-3,587,-10,27.1,29.1,7.6,26.8,29.8,7.7,5.73,1.64,7.4,30.1
2014-07-29 01:02:00,0.0,1.98254,0.00045,383.340,0.071,1.3311,0.0022,140.003,45.000,32275.59906,2.00971,389.753,37.966,45.062,45.000,0.00,0.11,-272.64,-272.70,-5,587,-10,27.1,29.2,7.6,26.8,29.9,7.7,5.73,1.90,7.4,30.2
2014-07-29 01:03:00,0.0,1.98224,0.00054,383.217,0.101,1.3317,0.0025,140.002,45.000,32276.91712,2.00936,389.626,37.964,45.062,45.000,0.00,0.11,-272.63,-272.70,-4,587,-10,27.1,29.1,7.6,26.8,29.9,7.7,5.73,1.87,7.4,30.3
2014-07-29 01:04:00,0.0,1.98162,0.00047,383.105,0.083,1.3221,0.0036,139.997,45.000,32274.15397,2.00854,389.470,37.996,45.062,45.000,0.00,0.11,-272.63,-272.71,-3,587,-10,27.1,28.9,7.5,26.8,29.7,7.6,5.73,1.65,7.4,30.2
2014-07-29 01:05:00,0.0,1.98103,0.00069,383.091,0.099,1.3259,0.0032,139.999,45.000,32274.79586,2.00808,389.472,37.999,45.062,45.000,0.00,0.11,-272.64,-272.70,-5,587,-10,27.1,29.0,7.6,26.8,29.7,7.6,5.73,1.99,7.4,30.1
2014-07-29 01:06:00,0.0,1.98016,0.00050,382.814,0.062,1.3337,0.0028,139.997,45.000,32276.63074,2.00725,389.232,38.012,45.062,45.000,0.00,0.11,-272.63,-272.70,-4,587,-10,27.1,29.2,7.6,26.8,29.9,7.7,5.73,1.73,7.4,30.0
2014-07-29 01:07:00,0.0,1.98062,0.00064,382.697,0.153,1.3406,0.0036,139.999,45.000,32277.34601,2.00795,389.143,38.027,45.062,45.000,0.00,0.11,-272.64,-272.70,-3,586,-10,27.1,29.4,7.7,26.8,30.0,7.8,5.73,1.76,7.5,29.9
2014-07-29 01:08:00,0.0,1.98044,0.00041,382.607,0.134,1.3550,0.0039,139.999,45.000,32276.82892,2.00802,389.121,38.003,45.062,45.000,0.00,0.11,-272.64,-272.70,-4,587,-10,27.2,29.8,7.9,26.8,30.3,7.9,5.73,1.97,7.4,30.1
2014-07-29 01:09:00,0.0,1.97978,0.00059,382.799,0.121,1.3654,0.0039,139.997,45.000,32274.27460,2.00763,389.377,38.003,45.062,45.000,0.00,0.11,-272.63,-272.70,-4,587,-10,27.2,30.0,8.1,26.8,30.6,8.1,5.73,1.63,7.4,30.1
2014-07-29 01:10:00,0.0,1.97964,0.00064,382.569,0.154,1.3735,0.0049,140.001,45.000,32276.75191,2.00757,389.177,38.004,45.062,45.000,0.00,0.11,-272.64,-272.70,-3,587,-10,27.1,30.1,8.1,26.8,30.8,8.2,5.73,1.90,7.5,30.1
2014-07-29 01:11:00,0.0,1.98122,0.00041,382.913,0.086,1.3590,0.0021,139.997,45.000,32276.31946,2.00892,389.455,38.009,45.062,45.000,0.00,0.11,-272.64,-272.71,-4,587,-10,27.2,29.8,7.9,26.8,30.6,8.1,5.73,1.86,7.4,30.0
2014-07-29 01:12:00,0.0,1.98088,0.00044,382.676,0.188,1.3588,0.0032,139.999,45.000,32279.04271,2.00856,389.215,38.005,45.062,45.000,0.00,0.11,-272.63,-272.70,-4,587,-10,27.2,29.7,7.9,26.8,30.5,8.0,5.73,1.65,7.5,30.1
2014-07-29 01:13:00,0.0,1.98087,0.00038,382.654,0.150,1.3511,0.0036,139.998,45.000,32278.15118,2.00840,389.157,38.019,45.062,45.000,0.00,0.11,-272.64,-272.70,-3,587,-10,27.1,29.6,7.9,26.8,30.3,7.9,5.73,1.99,7.5,30.2
2014-07-29 01:14:00,0.0,1.98017,0.00032,382.649,0.261,1.3626,0.0039,140.001,45.000,32278.23235,2.00794,389.201,38.011,45.062,45.000,0.00,0.11,-272.64,-272.70,-4,587,-10,27.2,29.9,8.0,26.8,30.5,8.0,5.73,1.72,7.5,30.1
2014-07-29 01:15:00,0.0,1.97928,0.00049,382.827,0.156,1.3693,0.0016,139.997,45.000,32279.70124,2.00719,389.431,38.023,45.062,45.000,0.00,0.11,-272.64,-272.69,-5,587,-10,27.2,30.0,8.1,26.8,30.7,8.1,5.73,1.76,7.5,30.2
2014-07-29 01:16:00,0.0,1.98047,0.00052,382.808,0.228,1.3679,0.0037,139.998,45.000,32278.57596,2.00833,389.385,38.037,45.062,45.000,0.00,0.11,-272.64,-272.70,-3,587,-10,27.2,29.9,8.0,26.8,30.7,8.1,5.73,1.97,7.5,30.2
2014-07-29 01:17:00,0.0,1.98046,0.00035,382.912,0.050,1.3650,0.0036,140.000,45.000,32278.16318,2.00828,389.487,38.027,45.062,45.000,0.00,0.11,-272.64,-272.70,-4,587,-10,27.2,29.8,8.0,26.8,30.6,8.1,5.73,1.63,7.5,30.3
2014-07-29 01:18:00,0.0,1.98134,0.00046,382.972,0.150,1.3499,0.0037,140.000,45.000,32276.16152,2.00882,389.476,38.023,45.062,45.000,0.00,0.11,-272.64,-272.70,-5,587,-10,27.2,29.5,7.8,26.9,30.3,8.0,5.73,1.92,7.5,30.2
2014-07-29 01:19:00,0.0,1.98103,0.00055,382.746,0.108,1.3516,0.0020,140.001,45.000,32278.72698,2.00859,389.249,38.000,45.062,45.000,0.00,0.11,-272.63,-272.70,-3,587,-10,27.2,29.5,7.8,26.9,30.2,7.9,5.73,1.85,7.5,30.3
2014-07-29 01:20:00,0.0,1.98163,0.00102,382.810,0.277,1.3403,0.0070,140.002,45.000,32280.35274,2.00888,389.253,38.000,45.063,45.000,0.00,0.11,-272.64,-272.70,-4,587,-10,27.2,29.2,7.7,26.9,30.1,7.9,5.73,1.66,7.5,30.1
2014-07-29 01:21:00,0.0,1.98273,0.00037,382.843,0.107,1.3331,0.0020,140.000,45.000,32280.01257,2.00989,389.264,38.000,45.063,45.000,0.00,0.11,-272.64,-272.70,-5,587,-10,27.2,29.0,7.6,26.9,29.8,7.7,5.73,1.99,7.5,30.1
2014-07-29 01:22:00,0.0,1.98317,0.00039,382.565,0.162,1.3351,0.0033,140.000,45.000,32279.87254,2.01035,388.980,37.999,45.063,45.000,0.00,0.11,-272.63,-272.70,-4,587,-10,27.2,29.1,7.6,26.9,29.8,7.8,5.73,1.70,7.5,30.2
2014-07-29 01:23:00,0.0,1.98316,0.00038,382.315,0.223,1.3379,0.0024,139.999,45.000,32278.90481,2.01045,388.749,37.999,45.063,45.000,0.00,0.11,-272.63,-272.69,-3,587,-10,27.2,29.1,7.7,26.9,29.9,7.8,5.73,1.80,7.5,30.2
2014-07-29 01:24:00,0.0,1.98350,0.00037,382.439,0.278,1.3394,0.0035,140.000,45.000,32278.84317,2.01080,388.871,38.001,45.063,45.000,0.00,0.11,-272.64,-272.71,-5,587,-10,27.2,29.2,7.7,26.9,29.9,7.8,5.73,1.95,7.5,30.3
2014-07-29 01:25:00,0.0,1.98366,0.00045,382.697,0.121,1.3423,0.0023,139.999,45.000,32278.30679,2.01101,389.151,38.001,45.063,45.000,0.00,0.11,-272.63,-272.70,-4,587,-10,27.2,29.3,7.7,26.9,30.0,7.8,5.73,1.63,7.5,30.2
2014-07-29 01:26:00,0.0,1.98383,0.00043,382.813,0.175,1.3471,0.0018,140.000,45.000,32278.20949,2.01129,389.291,38.014,45.063,45.000,0.00,0.11,-272.64,-272.69,-3,587,-10,27.2,29.4,7.8,26.9,30.1,7.9,5.73,1.95,7.5,30.3
2014-07-29 01:27:00,0.0,1.98358,0.00054,382.769,0.163,1.3422,0.0024,139.999,45.000,32277.58652,2.01100,389.226,38.030,45.062,45.000,0.00,0.11,-272.63,-272.70,-5,587,-10,27.2,29.2,7.7,26.9,30.0,7.8,5.73,1.79,7.5,30.3
2014-07-29 01:28:00,0.0,1.98341,0.00067,382.561,0.114,1.3428,0.0032,139.998,45.000,32278.83250,2.01075,389.024,38.051,45.062,45.000,0.00,0.11,-272.64,-272.70,-4,587,-10,27.2,29.2,7.7,26.9,30.0,7.8,5.73,1.71,7.5,30.3
2014-07-29 01:29:00,0.0,1.98231,0.00105,382.477,0.158,1.3450,0.0050,140.003,45.000,32280.62107,2.00979,388.942,38.060,45.062,45.000,0.00,0.11,-272.64,-272.70,-3,587,-10,27.2,29.4,7.8,26.9,30.0,7.8,5.73,1.99,7.5,30.2
2014-07-29 01:30:00,0.0,1.98444,0.00098,382.625,0.179,1.3446,0.0061,140.002,45.000,32280.02144,2.01179,389.095,38.061,45.062,45.000,0.00,0.11,-272.63,-272.70,-5,587,-10,27.2,29.2,7.7,26.9,30.1,7.9,5.73,1.65,7.6,30.4
2014-07-29 01:31:00,0.0,1.98500,0.00048,382.673,0.195,1.3337,0.0038,139.999,45.000,32281.25385,2.01223,389.077,38.058,45.062,45.000,0.00,0.11,-272.64,-272.70,-4,588,-10,27.2,29.0,7.6,26.9,29.8,7.7,5.73,1.88,7.5,30.3
2014-07-29 01:32:00,0.0,1.98545,0.00043,382.669,0.080,1.3379,0.0021,139.999,45.000,32279.88375,2.01273,389.105,38.059,45.062,45.000,0.00,0.11,-272.63,-272.70,-3,587,-10,27.2,29.1,7.7,26.9,29.8,7.8,5.73,1.87,7.6,30.3
2014-07-29 01:33:00,0.0,1.98511,0.00038,382.675,0.183,1.3414,0.0042,140.002,45.000,32282.14959,2.01246,389.117,38.062,45.062,45.000,0.00,0.11,-272.63,-272.70,-5,587,-10,27.2,29.3,7.7,26.9,29.9,7.8,5.73,1.65,7.6,30.4
2014-07-29 01:34:00,0.0,1.98484,0.00050,382.761,0.110,1.3499,0.0036,140.000,45.000,32283.98754,2.01243,389.261,38.063,45.062,45.000,0.00,0.11,-272.64,-272.70,-4,587,-10,27.2,29.4,7.8,26.9,30.1,7.9,5.73,1.99,7.6,30.3
2014-07-29 01:35:00,0.0,1.98407,0.00051,382.690,0.161,1.3466,0.0025,139.998,45.000,32283.73064,2.01158,389.174,38.062,45.062,45.000,0.00,0.11,-272.64,-272.70,-3,587,-10,27.2,29.3,7.8,26.9,30.0,7.9,5.73,1.70,7.5,30.1
2014-07-29 01:36:00,0.0,1.98354,0.00033,382.778,0.141,1.3437,0.0025,139.998,45.000,32284.93912,2.01094,389.231,38.062,45.062,45.000,0.00,0.11,-272.64,-272.70,-5,587,-10,27.2,29.2,7.7,26.9,30.0,7.8,5.73,1.80,7.6,30.1
2014-07-29 01:37:00,0.0,1.98410,0.00054,382.839,0.231,1.3259,0.0070,139.998,45.000,32283.02456,2.01112,389.216,38.061,45.062,45.000,0.00,0.11,-272.64,-272.70,-4,587,-10,27.2,28.7,7.5,26.9,29.7,7.7,5.73,1.94,7.6,30.1
2014-07-29 01:38:00,0.0,1.98372,0.00047,382.998,0.143,1.3262,0.0041,139.998,45.000,32284.01940,2.01077,389.384,38.063,45.063,45.000,0.00,0.11,-272.64,-272.70,-3,587,-10,27.2,28.8,7.5,26.9,29.5,7.6,5.73,1.62,7.6,30.2
2014-07-29 01:39:00,0.0,1.98432,0.00067,382.949,0.205,1.3259,0.0034,140.000,45.000,32285.01648,2.01131,389.318,38.061,45.062,45.000,0.00,0.11,-272.64,-272.70,-5,588,-10,27.2,28.8,7.5,26.9,29.5,7.6,5.73,1.97,7.6,30.0
2014-07-29 01:40:00,0.0,1.98449,0.00055,382.979,0.129,1.3240,0.0073,140.000,45.000,32286.43927,2.01152,389.355,38.063,45.062,45.000,0.00,0.11,-272.63,-272.70,-4,588,-10,27.2,28.7,7.5,27.0,29.5,7.7,5.73,1.76,7.6,30.2
2014-07-29 01:41:00,0.0,1.98400,0.00047,383.037,0.184,1.3270,0.0045,140.000,45.000,32285.84777,2.01109,389.416,38.068,45.062,45.000,0.00,0.11,-272.64,-272.70,-3,587,-10,27.2,28.8,7.5,26.9,29.5,7.6,5.73,1.74,7.6,30.3
2014-07-29 01:42:00,0.0,1.98382,0.00035,382.962,0.115,1.3263,0.0038,140.000,45.000,32285.62222,2.01086,389.345,38.078,45.063,45.000,0.00,0.11,-272.63,-272.71,-5,587,-10,27.3,28.7,7.5,26.9,29.5,7.7,5.73,1.97,7.6,30.3
2014-07-29 01:43:00,0.0,1.98324,0.00034,382.913,0.241,1.3271,0.0044,139.999,45.000,32285.19839,2.01027,389.291,38.073,45.062,45.000,0.00,0.11,-272.63,-272.70,-4,587,-10,27.2,28.9,7.6,27.0,29.5,7.6,5.73,1.63,7.6,30.4
2014-07-29 01:44:00,0.0,1.98381,0.00049,382.986,0.120,1.3359,0.0067,140.001,45.000,32286.61262,2.01104,389.420,38.092,45.062,45.000,0.00,0.11,-272.64,-272.70,-3,587,-10,27.2,28.9,7.6,26.9,29.7,7.7,5.73,1.94,7.6,30.4
2014-07-29 01:45:00,0.0,1.98463,0.00049,383.013,0.073,1.3273,0.0040,140.000,45.000,32286.20487,2.01165,389.395,38.111,45.062,45.000,0.00,0.11,-272.63,-272.71,-5,588,-10,27.2,28.8,7.5,27.0,29.5,7.7,5.73,1.78,7.6,30.4
2014-07-29 01:46:00,0.0,1.98529,0.00043,382.912,0.110,1.3253,0.0027,139.999,45.000,32286.45081,2.01236,389.292,38.125,45.062,45.000,0.00,0.11,-272.63,-272.70,-4,588,-10,27.3,28.7,7.5,27.0,29.5,7.7,5.73,1.72,7.6,30.5
2014-07-29 01:47:00,0.0,1.98539,0.00066,382.986,0.133,1.3390,0.0093,139.999,45.000,32285.15353,2.01272,389.423,38.125,45.062,45.000,0.00,0.11,-272.64,-272.70,-3,588,-10,27.3,29.2,7.7,27.0,29.6,7.7,5.73,1.98,7.6,30.4